Theta_e
316 316 314 311 309 309 309 308 308 309 310 310 310 308 306 305 303 301 304 306 305 304 303 297 296 295 294 291 291 291 290 290 289 290 290 290 290 289 289 289 288 288 288
314 314 312 310 310 310 308 308 309 310 310 310 308 306 305 303 304 307 307 306 302 299 296 295 295 292 291 290 290 289 289 289 289 289 289 290 289 289 288 288 288 287 287
314 314 312 311 311 309 308 309 310 310 311 310 308 305 305 306 307 305 303 302 297 296 295 294 291 291 290 290 290 289 289 288 289 289 289 289 289 288 288 288 287 288 288
315 314 313 312 311 309 309 309 310 310 310 308 306 306 307 305 303 303 299 296 294 294 292 291 290 290 290 290 289 288 288 288 288 289 289 288 288 288 287 287 288 287 287
315 314 314 313 311 310 310 310 310 310 308 307 307 306 304 303 298 294 294 294 294 291 290 290 290 290 290 289 288 288 287 287 288 288 287 288 288 287 286 286 286 286 286
314 314 312 311 311 311 310 310 310 309 308 306 305 303 300 295 294 294 294 292 290 290 290 290 290 289 288 288 288 287 288 287 286 286 286 287 287 286 285 285 285 286 285
313 312 311 311 311 310 311 310 310 308 304 302 300 299 294 294 294 293 290 290 290 290 290 289 289 288 288 287 288 288 287 287 286 286 286 286 286 285 285 285 285 285 286
313 311 311 310 311 310 309 309 306 304 303 302 300 295 294 294 293 290 290 290 290 290 289 289 288 288 288 288 287 287 286 286 286 286 286 285 285 285 285 285 285 285 286
312 310 309 311 310 308 306 304 303 302 301 296 294 294 294 293 290 290 289 289 289 289 289 288 288 288 288 287 287 286 286 286 286 285 284 285 285 285 285 285 285 285 285
306 307 307 308 309 304 303 302 301 299 294 294 294 294 291 290 290 289 289 289 289 289 289 288 288 287 287 287 286 285 285 285 285 285 285 285 285 285 284 283 283 283 282
304 305 305 305 304 303 300 298 295 294 294 294 293 290 290 289 289 289 289 289 289 289 288 288 287 286 286 286 285 285 285 285 285 285 285 285 285 284 284 284 284 283 282
304 303 302 302 301 301 298 296 294 294 294 293 290 290 290 290 290 289 289 289 288 288 287 286 286 286 286 285 285 285 285 285 286 285 285 284 284 285 285 284 284 283 283
305 304 302 299 298 297 296 295 294 294 292 290 290 290 289 289 289 289 289 288 288 287 286 286 286 286 285 285 285 286 286 285 285 284 284 284 284 284 284 283 284 283 283
301 299 297 296 295 294 294 293 293 291 290 290 290 289 289 289 289 288 288 288 287 287 286 286 286 286 285 285 285 285 284 284 284 284 284 284 284 283 283 282 282 283 283
299 299 298 297 295 293 293 293 290 289 290 290 289 289 289 289 288 288 288 287 287 287 286 286 285 285 284 284 284 284 284 284 284 283 283 283 283 282 282 282 282 282 280
298 296 295 295 295 294 293 290 289 289 289 289 289 289 289 289 288 288 287 287 287 286 285 285 285 284 284 283 284 284 283 283 283 283 283 282 282 282 282 281 281 280 280
299 297 296 295 294 293 290 290 290 289 289 289 289 288 288 288 287 287 287 286 286 286 286 285 284 284 284 283 283 283 283 283 283 282 282 282 282 281 281 281 281 280 280
297 297 296 295 293 291 290 289 290 290 290 289 288 288 288 287 287 286 286 286 286 286 285 285 284 284 284 283 283 283 283 282 282 282 282 281 281 281 281 281 281 281 280
297 296 295 294 292 290 290 289 289 289 289 289 288 288 287 287 286 286 286 285 285 285 285 285 284 284 283 283 283 282 282 282 282 282 282 281 281 281 281 281 281 281 281
296 296 295 293 291 290 289 289 289 289 288 288 288 287 287 287 286 286 286 285 285 285 285 284 284 284 283 282 282 282 282 282 282 281 281 281 281 281 281 281 281 282 282
296 295 293 292 290 290 289 289 289 288 288 288 287 287 287 286 286 286 285 285 285 285 284 284 284 283 283 282 282 282 282 282 282 281 281 281 281 281 281 281 281 282 281
295 294 293 291 290 290 289 288 288 288 288 288 287 287 286 286 286 286 285 285 285 284 284 284 283 283 283 282 282 282 282 282 281 281 281 281 281 281 281 281 281 282 282
295 293 292 291 290 289 289 288 288 288 288 287 287 287 286 286 286 285 285 284 284 284 284 284 283 283 283 282 282 282 282 282 281 281 281 281 281 281 281 281 282 282 282
293 292 292 291 290 289 289 288 288 288 288 287 287 287 286 285 285 284 284 283 283 283 283 283 283 283 283 282 281 281 281 282 281 281 281 281 281 281 281 282 282 282 282
291 291 291 291 290 289 289 288 287 288 287 287 286 286 285 285 284 284 283 283 283 283 282 282 282 283 283 282 281 281 281 281 281 281 281 281 281 281 281 282 282 282 282
291 292 290 290 289 289 288 287 287 287 287 286 286 285 285 284 284 283 283 283 283 282 282 282 282 282 282 282 281 281 281 281 281 281 281 282 281 281 282 282 283 282 282
Wind_Speed
27 32 32 41 42 40 37 36 35 34 32 33 31 30 27 24 22 20 16 12 10 7 5 9 6 5 6 7 7 8 9 9 11 12 13 16 18 20 19 20 20 21 21
28 32 35 39 39 38 39 40 39 39 39 32 29 29 26 24 20 17 13 11 10 11 9 6 5 5 5 5 6 8 10 11 12 13 13 15 16 16 18 19 20 20 21
25 30 37 41 41 44 41 37 35 34 32 30 29 27 22 19 18 16 15 12 11 9 9 6 5 4 3 4 7 9 9 10 11 13 15 14 16 16 18 18 20 21 21
23 25 32 38 44 43 43 41 31 30 31 31 28 25 20 16 15 13 15 16 12 9 7 5 4 3 4 7 6 7 9 11 12 12 14 15 14 13 17 20 23 22 23
25 26 28 33 38 44 45 36 30 34 33 30 27 22 19 13 13 14 13 11 9 7 5 3 2 4 6 6 5 8 10 11 11 12 14 14 14 16 19 20 22 23 24
25 29 34 36 39 39 37 31 35 32 28 25 22 20 19 19 15 12 9 8 6 4 3 3 3 5 7 9 11 13 13 12 12 14 12 11 14 18 18 21 21 24 27
27 32 36 41 41 38 33 36 34 29 26 22 21 17 19 18 15 11 8 7 6 4 2 2 4 6 7 8 12 13 14 16 14 11 13 14 16 16 19 20 20 21 22
26 32 36 37 30 32 36 36 34 27 25 23 21 21 18 15 12 10 8 6 4 1 1 3 4 7 8 10 11 12 13 11 14 14 14 15 15 16 17 18 20 21 22
27 29 34 38 35 31 40 35 29 28 25 24 21 19 16 15 13 10 7 4 2 1 2 5 7 8 10 11 11 11 12 9 14 14 13 14 13 14 16 19 19 22 26
22 26 30 34 31 42 34 32 32 29 27 24 22 19 16 13 10 8 5 3 1 3 4 6 9 9 10 11 10 10 10 10 13 12 9 11 13 14 14 16 21 22 22
26 34 41 39 36 32 34 29 28 27 26 24 21 18 15 12 9 6 2 1 2 4 6 7 9 10 11 12 11 9 11 13 10 12 11 11 12 14 14 16 17 18 19
26 24 24 27 30 31 31 28 25 24 21 18 16 14 11 10 7 5 2 0 3 4 5 6 9 10 11 10 9 11 11 12 12 12 11 11 13 15 16 17 18 18 19
26 28 27 26 25 24 26 26 23 20 17 17 15 13 12 8 5 2 1 2 2 4 5 7 10 10 10 11 10 11 11 11 11 10 11 13 15 17 18 19 20 19 18
28 28 28 28 28 26 25 23 21 19 17 16 15 12 9 6 3 2 3 5 4 5 6 8 9 10 10 10 10 10 9 10 10 11 12 14 15 17 18 21 22 22 21
26 27 27 27 26 25 22 19 18 17 14 12 10 8 7 6 4 4 5 5 6 7 8 9 9 9 9 9 9 9 10 11 11 11 13 15 16 18 19 20 21 22 20
26 27 26 26 24 23 22 21 17 13 12 12 10 8 7 5 5 4 4 5 7 7 7 8 9 10 10 10 10 10 11 11 12 12 13 14 16 18 20 21 20 20 20
24 26 26 25 23 22 20 19 20 17 14 11 9 7 5 5 4 3 4 6 7 7 8 10 10 11 12 11 11 10 10 11 12 12 13 14 15 17 18 19 21 20 19
24 24 24 23 22 20 19 17 14 13 14 12 10 8 7 4 3 5 6 7 8 9 9 11 12 13 12 11 10 10 11 11 11 12 12 14 14 15 17 19 19 19 19
24 25 24 22 20 18 17 16 14 13 13 11 10 8 4 3 5 7 8 8 9 11 12 12 13 13 12 11 10 10 11 11 11 12 13 14 14 13 16 18 19 17 16
23 22 22 22 20 19 17 17 15 13 12 10 7 5 6 8 8 8 9 10 11 12 12 13 13 13 12 12 11 10 11 11 12 13 13 13 11 12 15 17 18 18 18
25 24 22 20 19 19 18 16 14 13 11 9 8 8 9 10 11 12 12 13 13 14 15 14 13 13 13 12 11 11 11 12 12 13 13 12 10 12 15 16 17 17 17
25 24 23 21 20 18 16 15 13 12 12 10 10 10 11 12 14 14 14 14 15 15 15 14 14 14 14 13 11 11 12 12 13 12 12 10 8 13 14 16 17 16 15
25 24 23 21 18 16 15 14 13 12 12 12 12 12 13 13 14 15 17 16 16 15 14 14 14 14 13 13 11 11 11 12 11 11 11 7 9 13 14 17 15 14 13
22 21 20 18 16 16 15 14 13 13 13 13 13 14 14 14 14 15 12 12 11 11 12 13 14 14 14 13 11 11 11 11 11 11 9 6 10 14 17 15 13 13 14
19 17 16 16 16 15 14 13 13 13 13 14 15 14 14 13 14 13 12 13 13 13 14 15 15 14 13 12 11 11 11 11 11 11 6 8 12 14 15 13 12 13 15
15 16 16 15 14 13 13 13 13 14 14 15 15 15 14 14 15 15 16 16 17 16 16 16 17 15 14 12 11 11 11 10 9 5 4 11 11 14 13 12 12 14 15
Wind_Direction
207 205 194 185 181 181 177 186 182 184 180 181 181 182 178 172 169 168 168 177 187 173 179 198 192 225 266 276 288 299 301 296 289 293 293 301 306 317 326 326 330 331 328
202 202 188 189 184 183 185 187 182 183 188 182 178 178 174 171 174 190 191 174 178 178 180 184 216 245 262 288 304 309 304 308 307 305 312 311 317 310 319 328 332 331 330
204 206 192 192 187 185 188 186 187 188 189 180 179 173 172 178 183 174 172 164 177 176 187 206 223 244 269 297 309 309 312 322 316 309 318 309 311 325 324 331 330 330 331
203 202 201 197 195 188 187 192 191 190 182 173 174 176 176 169 166 167 172 178 173 181 199 209 220 251 302 304 306 314 330 332 328 315 309 318 321 325 321 327 330 331 333
206 205 203 200 195 198 200 202 198 181 176 176 175 166 155 150 160 167 169 171 180 185 185 209 263 290 298 306 321 324 328 330 325 311 314 320 320 317 324 327 325 327 334
207 202 195 188 193 200 193 196 182 176 175 164 154 155 153 156 159 162 175 183 176 184 198 227 274 324 324 331 337 334 330 332 323 316 310 302 309 315 316 323 330 331 334
200 192 191 191 190 188 189 185 175 168 150 150 147 156 157 153 156 165 177 185 187 187 203 317 331 326 330 332 336 340 339 329 326 311 306 313 303 309 313 321 323 328 331
197 190 185 185 183 185 172 166 151 152 153 155 161 164 153 151 161 175 184 181 171 160 300 311 327 329 329 337 334 331 323 320 305 301 297 302 307 313 315 322 325 321 323
186 179 171 175 176 163 149 143 153 155 156 159 162 155 159 167 170 168 171 172 177 218 318 331 328 328 334 336 331 324 318 314 298 308 311 315 315 316 325 323 321 326 331
168 167 166 160 156 144 143 148 151 160 158 160 159 163 165 164 159 167 171 177 178 333 316 324 325 328 325 330 330 313 304 291 304 309 310 311 321 329 325 316 324 329 331
143 146 139 139 141 148 142 146 152 156 160 162 164 159 161 164 162 164 177 269 329 311 314 319 318 328 327 328 326 312 307 309 313 318 320 324 315 307 314 321 323 320 313
139 140 139 146 148 142 138 148 157 160 160 158 160 158 162 168 170 179 207 339 335 298 304 307 310 320 322 325 325 320 310 311 319 319 318 307 311 323 331 330 326 320 315
138 139 136 136 136 140 152 154 158 161 164 164 166 170 171 174 182 192 263 302 306 302 302 321 319 319 319 315 312 312 316 319 317 312 313 321 327 328 330 332 333 325 321
147 147 148 149 151 154 159 162 164 166 169 172 173 173 172 179 200 246 300 305 301 304 309 308 309 310 307 306 311 318 313 308 310 316 321 325 327 331 333 333 336 337 331
158 157 158 158 159 159 161 164 170 171 173 171 172 177 183 194 207 232 258 285 302 307 304 304 304 305 305 308 309 308 305 307 312 318 322 326 329 332 335 337 335 337 334
166 165 164 165 166 169 172 169 166 169 173 177 182 188 197 206 228 249 273 294 299 301 304 300 298 301 299 297 296 296 299 303 308 315 320 324 326 330 336 339 337 336 334
178 173 172 174 174 174 174 178 177 175 176 182 188 195 205 221 236 282 304 297 300 302 302 302 302 300 296 293 296 299 302 305 308 312 316 320 324 327 336 337 340 334 338
182 181 180 179 180 179 181 183 185 189 189 190 192 202 210 221 284 297 296 297 301 305 305 301 299 296 294 296 297 301 305 309 311 313 317 322 325 329 337 340 340 339 341
184 184 184 183 183 186 187 189 191 192 193 196 201 210 223 268 278 282 288 295 300 304 304 299 299 298 296 296 295 300 307 312 315 317 321 325 328 330 337 341 341 341 338
187 189 189 188 188 190 194 196 195 196 202 208 213 233 256 264 273 279 287 296 298 300 297 297 298 299 299 296 294 298 307 311 312 316 321 324 326 334 339 339 338 340 343
188 189 192 193 196 198 200 200 204 206 210 218 231 247 259 269 275 279 280 284 288 294 294 295 295 295 295 292 291 295 304 309 311 314 319 322 327 336 340 337 339 341 341
192 194 194 198 200 201 203 205 210 214 221 230 243 253 262 270 275 277 281 282 283 287 289 294 297 299 296 291 289 291 301 307 308 309 315 317 328 335 339 338 337 338 343
196 197 198 200 201 203 206 212 217 224 233 241 252 262 268 274 279 283 285 281 282 287 292 294 298 299 295 287 283 286 297 305 304 308 311 308 332 336 343 332 332 336 342
198 200 203 203 205 209 215 220 226 232 242 251 260 267 272 277 281 285 284 285 291 294 305 305 304 300 296 286 278 282 293 301 305 308 301 302 331 337 326 326 329 333 333
197 199 205 210 213 216 221 226 233 241 250 257 263 267 275 280 285 287 287 289 291 295 300 303 310 304 295 282 270 274 285 294 303 301 273 319 326 311 320 321 323 330 331
193 206 210 210 214 221 228 235 242 251 257 262 264 268 274 280 285 286 288 289 291 292 292 295 301 302 298 282 266 270 279 289 298 280 293 321 295 306 316 318 322 329 331